• In Russia
  • List of Countries
  • For 7 days
  • Water Temperature
  • Satellite Maps
  • Weather Map
  • Weather Widgets
  • user-avatar
    Login

    Hourly Weather Biskira

    Today, 25 June, Tuesday

    Time Temperature Precipitation Wind Pressure Humidity
    00:00 +38°C° 0 mm 4 mps 752 mmHg 9%
    01:00 +37°C° 0 mm 3 mps 752 mmHg 10%
    02:00 +36°C° 0 mm 3 mps 752 mmHg 10%
    03:00 +36°C° 0 mm 3 mps 751 mmHg 11%
    04:00 +36°C° 0 mm 3 mps 752 mmHg 11%
    05:00 +36°C° 0 mm 2 mps 752 mmHg 11%
    06:00 +37°C° 0 mm 2 mps 753 mmHg 11%
    07:00 +39°C° 0 mm 3 mps 753 mmHg 10%
    08:00 +41°C° 0 mm 5 mps 753 mmHg 10%
    09:00 +44°C° 0 mm 6 mps 754 mmHg 10%
    10:00 +46°C° 0 mm 6 mps 753 mmHg 9%
    11:00 +47°C° 0 mm 5 mps 753 mmHg 8%
    12:00 +48°C° 0 mm 5 mps 753 mmHg 7%
    13:00 +48°C° 0 mm 5 mps 753 mmHg 6%
    14:00 +49°C° 0 mm 5 mps 752 mmHg 6%
    15:00 +49°C° 0 mm 5 mps 752 mmHg 5%
    16:00 +48°C° 0 mm 4 mps 752 mmHg 5%
    17:00 +47°C° 0 mm 3 mps 752 mmHg 5%
    18:00 +46°C° 0 mm 3 mps 752 mmHg 6%
    19:00 +44°C° 0 mm 3 mps 753 mmHg 7%
    20:00 +41°C° 0 mm 2 mps 753 mmHg 7%
    21:00 +40°C° 0 mm 2 mps 753 mmHg 8%
    22:00 +39°C° 0 mm 2 mps 753 mmHg 9%
    23:00 +38°C° 0 mm 3 mps 753 mmHg 9%

    Tomorrow, 26 June, Wednesday

    Time Temperature Precipitation Wind Pressure Humidity
    00:00 +38°C° 0 mm 3 mps 753 mmHg 10%
    01:00 +36°C° 0 mm 3 mps 753 mmHg 14%
    02:00 +35°C° 0 mm 4 mps 753 mmHg 18%
    03:00 +34°C° 0 mm 4 mps 753 mmHg 23%
    04:00 +34°C° 0 mm 3 mps 754 mmHg 23%
    05:00 +34°C° 0 mm 2 mps 754 mmHg 24%
    06:00 +34°C° 0 mm 1 mps 754 mmHg 24%
    07:00 +37°C° 0 mm 2 mps 754 mmHg 22%
    08:00 +38°C° 0 mm 3 mps 754 mmHg 20%
    09:00 +40°C° 0 mm 3 mps 754 mmHg 17%
    10:00 +42°C° 0 mm 3 mps 754 mmHg 15%
    11:00 +43°C° 0 mm 3 mps 754 mmHg 14%
    12:00 +45°C° 0 mm 3 mps 754 mmHg 12%
    13:00 +46°C° 0 mm 2 mps 753 mmHg 11%
    14:00 +46°C° 0 mm 2 mps 753 mmHg 9%
    15:00 +47°C° 0 mm 2 mps 752 mmHg 8%
    16:00 +47°C° 0 mm 2 mps 752 mmHg 8%
    17:00 +47°C° 0 mm 2 mps 752 mmHg 8%
    18:00 +46°C° 0 mm 2 mps 752 mmHg 8%
    19:00 +45°C° 0 mm 3 mps 752 mmHg 9%
    20:00 +43°C° 0 mm 3 mps 752 mmHg 10%
    21:00 +41°C° 0 mm 4 mps 753 mmHg 11%
    22:00 +40°C° 0 mm 5 mps 753 mmHg 13%
    23:00 +39°C° 0 mm 5 mps 753 mmHg 16%

    Day after tomorrow, 27 June, Thursday

    Time Temperature Precipitation Wind Pressure Humidity
    00:00 +38°C° 0 mm 6 mps 753 mmHg 19%
    01:00 +36°C° 0 mm 5 mps 753 mmHg 24%
    02:00 +34°C° 0 mm 4 mps 753 mmHg 29%
    03:00 +31°C° 0 mm 3 mps 753 mmHg 34%
    04:00 +32°C° 0 mm 2 mps 753 mmHg 35%
    05:00 +32°C° 0 mm 2 mps 753 mmHg 35%
    06:00 +32°C° 0 mm 1 mps 753 mmHg 36%
    07:00 +33°C° 0 mm 1 mps 753 mmHg 34%
    08:00 +35°C° 0 mm 2 mps 753 mmHg 31%
    09:00 +36°C° 0 mm 2 mps 753 mmHg 29%
    10:00 +38°C° 0 mm 2 mps 753 mmHg 26%
    11:00 +39°C° 0 mm 2 mps 753 mmHg 23%
    12:00 +42°C° 0 mm 3 mps 752 mmHg 19%
    13:00 +43°C° 0 mm 3 mps 752 mmHg 17%
    14:00 +44°C° 0 mm 4 mps 751 mmHg 14%
    15:00 +45°C° 0 mm 4 mps 750 mmHg 12%
    16:00 +46°C° 0 mm 5 mps 750 mmHg 12%
    17:00 +46°C° 0 mm 5 mps 750 mmHg 11%
    18:00 +46°C° 0 mm 6 mps 750 mmHg 11%
    19:00 +43°C° 0 mm 5 mps 750 mmHg 13%
    20:00 +41°C° 0 mm 5 mps 751 mmHg 16%
    21:00 +39°C° 0 mm 5 mps 751 mmHg 19%
    22:00 +37°C° 0 mm 5 mps 752 mmHg 21%
    23:00 +36°C° 0 mm 4 mps 752 mmHg 23%

    28 June, Friday

    Time Temperature Precipitation Wind Pressure Humidity
    00:00 +36°C° 0 mm 4 mps 752 mmHg 26%
    01:00 +35°C° 0 mm 4 mps 752 mmHg 28%
    02:00 +34°C° 0 mm 4 mps 752 mmHg 31%
    03:00 +33°C° 0 mm 4 mps 751 mmHg 34%
    04:00 +33°C° 0 mm 3 mps 752 mmHg 34%
    05:00 +33°C° 0 mm 3 mps 752 mmHg 34%
    06:00 +33°C° 0 mm 3 mps 752 mmHg 34%
    07:00 +34°C° 0 mm 3 mps 752 mmHg 32%
    08:00 +35°C° 0 mm 3 mps 752 mmHg 30%
    09:00 +36°C° 0 mm 3 mps 752 mmHg 28%
    10:00 +37°C° 0 mm 3 mps 752 mmHg 26%
    11:00 +39°C° 0 mm 3 mps 751 mmHg 24%
    12:00 +40°C° 0 mm 3 mps 751 mmHg 21%
    13:00 +42°C° 0 mm 3 mps 751 mmHg 20%
    14:00 +42°C° 0 mm 3 mps 750 mmHg 18%
    15:00 +43°C° 0 mm 4 mps 750 mmHg 16%
    16:00 +43°C° 0 mm 4 mps 749 mmHg 15%
    17:00 +43°C° 0 mm 4 mps 749 mmHg 14%
    18:00 +43°C° 0 mm 4 mps 749 mmHg 13%
    19:00 +41°C° 0 mm 4 mps 750 mmHg 16%
    20:00 +39°C° 0 mm 3 mps 750 mmHg 18%
    21:00 +37°C° 0 mm 2 mps 751 mmHg 20%
    22:00 +37°C° 0 mm 3 mps 751 mmHg 21%
    23:00 +36°C° 0 mm 3 mps 751 mmHg 23%

    29 June, Saturday

    Time Temperature Precipitation Wind Pressure Humidity
    00:00 +35°C° 0 mm 3 mps 751 mmHg 24%
    01:00 +35°C° 0 mm 4 mps 750 mmHg 27%
    02:00 +34°C° 0 mm 6 mps 750 mmHg 29%
    03:00 +33°C° 0 mm 7 mps 750 mmHg 32%
    04:00 +33°C° 0 mm 6 mps 751 mmHg 33%
    05:00 +33°C° 0 mm 6 mps 751 mmHg 33%
    06:00 +34°C° 0 mm 5 mps 751 mmHg 33%
    07:00 +35°C° 0 mm 5 mps 752 mmHg 31%
    08:00 +36°C° 0 mm 5 mps 752 mmHg 29%
    09:00 +37°C° 0 mm 5 mps 752 mmHg 27%
    10:00 +38°C° 0 mm 4 mps 752 mmHg 25%
    11:00 +40°C° 0 mm 4 mps 751 mmHg 23%
    12:00 +40°C° 0 mm 3 mps 751 mmHg 20%
    13:00 +42°C° 0 mm 3 mps 751 mmHg 19%
    14:00 +42°C° 0 mm 2 mps 750 mmHg 17%
    15:00 +43°C° 0 mm 2 mps 750 mmHg 15%
    16:00 +42°C° 0 mm 2 mps 750 mmHg 15%
    17:00 +43°C° 0 mm 3 mps 750 mmHg 14%
    18:00 +43°C° 0 mm 3 mps 750 mmHg 14%
    19:00 +42°C° 0 mm 3 mps 750 mmHg 16%
    20:00 +39°C° 0 mm 3 mps 751 mmHg 18%
    21:00 +37°C° 0 mm 3 mps 751 mmHg 19%
    22:00 +37°C° 0 mm 2 mps 751 mmHg 21%
    23:00 +36°C° 0 mm 2 mps 751 mmHg 23%

    30 June, Sunday

    Time Temperature Precipitation Wind Pressure Humidity
    00:00 +35°C° 0 mm 2 mps 751 mmHg 25%
    01:00 +34°C° 0 mm 2 mps 751 mmHg 27%
    02:00 +34°C° 0 mm 2 mps 751 mmHg 28%
    03:00 +32°C° 0 mm 2 mps 751 mmHg 29%
    04:00 +34°C° 0 mm 2 mps 751 mmHg 28%
    05:00 +34°C° 0 mm 2 mps 752 mmHg 27%
    06:00 +34°C° 0 mm 2 mps 752 mmHg 26%
    07:00 +36°C° 0 mm 2 mps 752 mmHg 24%
    08:00 +37°C° 0 mm 2 mps 752 mmHg 22%
    09:00 +39°C° 0 mm 2 mps 752 mmHg 20%
    10:00 +40°C° 0 mm 2 mps 752 mmHg 19%
    11:00 +41°C° 0 mm 2 mps 752 mmHg 17%
    12:00 +43°C° 0 mm 2 mps 752 mmHg 15%
    13:00 +43°C° 0 mm 2 mps 751 mmHg 13%
    14:00 +45°C° 0 mm 3 mps 750 mmHg 11%
    15:00 +46°C° 0 mm 3 mps 750 mmHg 10%
    16:00 +46°C° 0 mm 3 mps 750 mmHg 9%
    17:00 +46°C° 0 mm 3 mps 749 mmHg 9%
    18:00 +45°C° 0 mm 3 mps 749 mmHg 9%
    19:00 +43°C° 0 mm 3 mps 750 mmHg 11%
    20:00 +40°C° 0 mm 3 mps 750 mmHg 13%
    21:00 +38°C° 0 mm 2 mps 751 mmHg 16%
    22:00 +37°C° 0 mm 2 mps 751 mmHg 17%
    23:00 +36°C° 0 mm 2 mps 751 mmHg 19%
    Show more